Starlink 30567

operational
NORAD ID: 58067 Int'l Des: 2023-158 Owner: SPXS Country: US Constellation: starlink
LEOCIRCULAR

Starlink 30567について

説明を読み込み中...

リアルタイム位置

3D地球を読み込み中...

次回通過

高度履歴

Altitude vs Time

uPlot chart will show altitude changes over time

軌道要素

1 58067U 23158S 25354.29403808 -.00000074 00000-0 95820-5 0 9999
2 58067 43.0027 102.1187 0001532 286.1171 73.9503 15.02537049121581
Epoch: Dec 20, 2025 • Age: 22 hours

現在のステータス

高度 566.3 km
速度 7.58 km/s
衛星直下点 -28.95°S, 151.42°E
打ち上げ日 Oct 13, 2023
運用期間 2.1 years
タイプ internet

技術仕様

分類 Payload
質量 730.00 kg
乾燥質量 700.00 kg
総質量 730.00 kg
長さ 0.30 m
直径 4.10 m
スパン 29.00 m
形状 Box + pan
製造者 SPXS
バスタイプ Starlink V2M
フェーズステータス In Orbit
所有者/国 SPXS/US

大規模コンステレーション

Loading constellations...